Time,TemperatureF,DewpointF,PressureIn,WindDirection,WindDirectionDegrees,WindSpeedMPH,WindSpeedGustMPH,Humidity,HourlyPrecipIn,Conditions,Clouds,dailyrainin,SoftwareType,DateUTC
2013-08-12 00:00:00,60.2,46.3,29.92,WSW,252,0.0,0.0,60,0.00,,,0.00,Wunderground v.1.15,2013-08-12 07:00:00,
2013-08-12 00:10:00,59.9,46.8,29.92,WSW,252,0.0,0.0,62,0.00,,,0.00,Wunderground v.1.15,2013-08-12 07:10:00,
2013-08-12 00:20:00,59.6,46.1,29.92,WSW,252,0.0,0.0,61,0.00,,,0.00,Wunderground v.1.15,2013-08-12 07:20:00,
2013-08-12 00:25:00,59.3,46.3,29.92,WSW,252,0.0,0.0,62,0.00,,,0.00,Wunderground v.1.15,2013-08-12 07:25:00,
2013-08-12 00:30:00,59.2,46.2,29.92,WSW,252,0.0,0.0,62,0.00,,,0.00,Wunderground v.1.15,2013-08-12 07:30:00,
2013-08-12 00:40:00,58.7,46.1,29.92,WSW,252,0.0,0.0,63,0.00,,,0.00,Wunderground v.1.15,2013-08-12 07:40:00,
2013-08-12 00:45:00,58.6,45.6,29.92,WSW,252,0.0,0.0,62,0.00,,,0.00,Wunderground v.1.15,2013-08-12 07:45:00,
2013-08-12 00:55:00,58.1,45.6,29.92,WSW,252,0.0,0.0,63,0.00,,,0.00,Wunderground v.1.15,2013-08-12 07:55:00,
2013-08-12 01:00:00,57.8,45.7,29.91,WSW,252,0.0,0.0,64,0.00,,,0.00,Wunderground v.1.15,2013-08-12 08:00:00,
2013-08-12 01:10:00,57.5,45.4,29.91,WSW,252,0.0,0.0,64,0.00,,,0.00,Wunderground v.1.15,2013-08-12 08:10:00,
2013-08-12 01:15:00,57.2,45.5,29.91,WSW,252,0.0,0.0,65,0.00,,,0.00,Wunderground v.1.15,2013-08-12 08:15:00,
2013-08-12 01:20:00,57.0,45.3,29.91,WSW,252,0.0,0.0,65,0.00,,,0.00,Wunderground v.1.15,2013-08-12 08:20:00,
2013-08-12 01:30:00,56.7,45.5,29.92,WSW,252,0.0,0.0,66,0.00,,,0.00,Wunderground v.1.15,2013-08-12 08:30:00,
2013-08-12 01:35:00,56.6,45.4,29.92,WSW,252,0.0,0.0,66,0.00,,,0.00,Wunderground v.1.15,2013-08-12 08:35:00,
2013-08-12 01:45:00,56.2,45.4,29.91,WSW,252,0.0,0.0,67,0.00,,,0.00,Wunderground v.1.15,2013-08-12 08:45:00,
2013-08-12 01:50:00,56.0,45.2,29.91,WSW,252,0.0,0.0,67,0.00,,,0.00,Wunderground v.1.15,2013-08-12 08:50:00,
2013-08-12 02:00:00,55.6,45.2,29.91,WSW,252,0.0,0.0,68,0.00,,,0.00,Wunderground v.1.15,2013-08-12 09:00:00,
2013-08-12 02:05:00,55.4,45.0,29.91,WSW,252,0.0,0.0,68,0.00,,,0.00,Wunderground v.1.15,2013-08-12 09:05:00,
2013-08-12 02:10:00,55.3,45.3,29.91,WSW,252,0.0,0.0,69,0.00,,,0.00,Wunderground v.1.15,2013-08-12 09:10:00,
2013-08-12 02:15:00,55.1,45.1,29.92,WSW,252,0.0,0.0,69,0.00,,,0.00,Wunderground v.1.15,2013-08-12 09:15:00,
2013-08-12 02:20:00,55.0,45.0,29.92,WSW,252,0.0,0.0,69,0.00,,,0.00,Wunderground v.1.15,2013-08-12 09:20:00,
2013-08-12 02:30:00,54.5,44.5,29.92,WSW,252,0.0,0.0,69,0.00,,,0.00,Wunderground v.1.15,2013-08-12 09:30:00,
2013-08-12 02:35:00,54.4,44.8,29.92,WSW,252,0.0,0.0,70,0.00,,,0.00,Wunderground v.1.15,2013-08-12 09:35:00,
2013-08-12 02:40:00,54.1,44.5,29.92,WSW,252,0.0,0.0,70,0.00,,,0.00,Wunderground v.1.15,2013-08-12 09:40:00,
2013-08-12 02:50:00,53.8,44.6,29.91,WSW,252,0.0,0.0,71,0.00,,,0.00,Wunderground v.1.15,2013-08-12 09:50:00,
2013-08-12 02:55:00,53.6,44.4,29.91,WSW,252,0.0,0.0,71,0.00,,,0.00,Wunderground v.1.15,2013-08-12 09:55:00,
2013-08-12 03:00:00,53.5,44.7,29.91,WSW,252,0.0,0.0,72,0.00,,,0.00,Wunderground v.1.15,2013-08-12 10:00:00,
2013-08-12 03:05:00,53.3,44.5,29.91,WSW,252,0.0,0.0,72,0.00,,,0.00,Wunderground v.1.15,2013-08-12 10:05:00,
2013-08-12 03:10:00,53.2,44.4,29.91,WSW,252,0.0,0.0,72,0.00,,,0.00,Wunderground v.1.15,2013-08-12 10:10:00,
2013-08-12 03:20:00,53.2,44.8,29.91,WSW,252,0.0,0.0,73,0.00,,,0.00,Wunderground v.1.15,2013-08-12 10:20:00,
2013-08-12 03:30:00,52.9,44.5,29.91,WSW,252,0.0,0.0,73,0.00,,,0.00,Wunderground v.1.15,2013-08-12 10:30:00,
2013-08-12 03:35:00,52.8,44.4,29.91,WSW,252,0.0,0.0,73,0.00,,,0.00,Wunderground v.1.15,2013-08-12 10:35:00,
2013-08-12 03:40:00,52.6,44.5,29.91,WSW,252,0.0,0.0,74,0.00,,,0.00,Wunderground v.1.15,2013-08-12 10:40:00,
2013-08-12 03:50:00,52.3,44.3,29.91,WSW,252,0.0,0.0,74,0.00,,,0.00,Wunderground v.1.15,2013-08-12 10:50:00,
2013-08-12 03:55:00,52.2,44.2,29.91,WSW,252,0.0,0.0,74,0.00,,,0.00,Wunderground v.1.15,2013-08-12 10:55:00,
2013-08-12 04:00:00,52.0,44.3,29.91,WSW,252,0.0,0.0,75,0.00,,,0.00,Wunderground v.1.15,2013-08-12 11:00:00,
2013-08-12 04:05:00,51.9,43.9,29.91,WSW,252,0.0,0.0,74,0.00,,,0.00,Wunderground v.1.15,2013-08-12 11:05:00,
2013-08-12 04:10:00,51.7,44.0,29.91,WSW,252,0.0,0.0,75,0.00,,,0.00,Wunderground v.1.15,2013-08-12 11:10:00,
2013-08-12 04:20:00,51.6,44.3,29.91,WSW,252,0.0,0.0,76,0.00,,,0.00,Wunderground v.1.15,2013-08-12 11:20:00,
2013-08-12 04:25:00,51.6,44.3,29.91,WSW,252,0.0,0.0,76,0.00,,,0.00,Wunderground v.1.15,2013-08-12 11:25:00,
2013-08-12 04:30:00,51.3,44.0,29.92,WSW,252,0.0,0.0,76,0.00,,,0.00,Wunderground v.1.15,2013-08-12 11:30:00,
2013-08-12 04:35:00,51.1,43.8,29.92,WSW,252,0.0,0.0,76,0.00,,,0.00,Wunderground v.1.15,2013-08-12 11:35:00,
2013-08-12 04:40:00,51.0,44.0,29.92,WSW,252,0.0,0.0,77,0.00,,,0.00,Wunderground v.1.15,2013-08-12 11:40:00,
2013-08-12 04:50:00,50.8,43.8,29.92,WSW,252,0.0,0.0,77,0.00,,,0.00,Wunderground v.1.15,2013-08-12 11:50:00,
2013-08-12 04:55:00,50.7,43.8,29.92,WSW,252,0.0,0.0,77,0.00,,,0.00,Wunderground v.1.15,2013-08-12 11:55:00,
2013-08-12 05:00:00,50.7,43.8,29.92,WSW,252,0.0,0.0,77,0.00,,,0.00,Wunderground v.1.15,2013-08-12 12:00:00,
2013-08-12 05:10:00,50.4,43.8,29.92,WSW,252,0.0,0.0,78,0.00,,,0.00,Wunderground v.1.15,2013-08-12 12:10:00,
2013-08-12 05:15:00,50.2,43.6,29.92,WSW,252,0.0,0.0,78,0.00,,,0.00,Wunderground v.1.15,2013-08-12 12:15:00,
2013-08-12 05:20:00,50.1,43.5,29.92,WSW,252,0.0,0.0,78,0.00,,,0.00,Wunderground v.1.15,2013-08-12 12:20:00,
2013-08-12 05:25:00,50.1,43.5,29.92,WSW,252,0.0,0.0,78,0.00,,,0.00,Wunderground v.1.15,2013-08-12 12:25:00,
2013-08-12 05:30:00,50.1,43.5,29.92,WSW,252,0.0,0.0,78,0.00,,,0.00,Wunderground v.1.15,2013-08-12 12:30:00,
2013-08-12 05:40:00,49.8,43.2,29.92,WSW,252,0.0,0.0,78,0.00,,,0.00,Wunderground v.1.15,2013-08-12 12:40:00,
2013-08-12 05:45:00,49.6,43.4,29.93,WSW,252,0.0,0.0,79,0.00,,,0.00,Wunderground v.1.15,2013-08-12 12:45:00,
2013-08-12 05:50:00,49.6,43.4,29.93,WSW,252,0.0,0.0,79,0.00,,,0.00,Wunderground v.1.15,2013-08-12 12:50:00,
2013-08-12 05:55:00,49.5,43.3,29.93,WSW,252,0.0,0.0,79,0.00,,,0.00,Wunderground v.1.15,2013-08-12 12:55:00,
2013-08-12 06:00:00,49.5,43.3,29.93,WSW,252,0.0,0.0,79,0.00,,,0.00,Wunderground v.1.15,2013-08-12 13:00:00,
2013-08-12 06:10:00,49.4,43.5,29.93,WSW,252,0.0,0.0,80,0.00,,,0.00,Wunderground v.1.15,2013-08-12 13:10:00,
2013-08-12 06:15:00,49.4,43.5,29.94,WSW,252,0.0,0.0,80,0.00,,,0.00,Wunderground v.1.15,2013-08-12 13:15:00,
2013-08-12 06:20:00,49.5,43.6,29.94,WSW,252,0.0,0.0,80,0.00,,,0.00,Wunderground v.1.15,2013-08-12 13:20:00,
2013-08-12 06:30:00,49.5,43.3,29.94,WSW,252,0.0,0.0,79,0.00,,,0.00,Wunderground v.1.15,2013-08-12 13:30:00,
2013-08-12 06:35:00,49.4,43.5,29.94,WSW,252,0.0,0.0,80,0.00,,,0.00,Wunderground v.1.15,2013-08-12 13:35:00,
2013-08-12 06:40:00,49.5,43.6,29.94,WSW,252,0.0,0.0,80,0.00,,,0.00,Wunderground v.1.15,2013-08-12 13:40:00,
2013-08-12 06:45:00,49.5,43.3,29.94,WSW,252,0.0,0.0,79,0.00,,,0.00,Wunderground v.1.15,2013-08-12 13:45:00,
2013-08-12 06:50:00,49.5,43.3,29.94,WSW,252,0.0,0.0,79,0.00,,,0.00,Wunderground v.1.15,2013-08-12 13:50:00,
2013-08-12 07:00:00,49.8,43.5,29.94,WSW,252,0.0,0.0,79,0.00,,,0.00,Wunderground v.1.15,2013-08-12 14:00:00,
2013-08-12 07:05:00,49.9,44.0,29.94,WSW,252,0.0,0.0,80,0.00,,,0.00,Wunderground v.1.15,2013-08-12 14:05:00,
2013-08-12 07:10:00,50.2,43.9,29.94,WSW,252,0.0,0.0,79,0.00,,,0.00,Wunderground v.1.15,2013-08-12 14:10:00,
2013-08-12 07:20:00,50.5,43.9,29.95,WSW,252,0.0,0.0,78,0.00,,,0.00,Wunderground v.1.15,2013-08-12 14:20:00,
2013-08-12 07:25:00,50.8,44.2,29.95,WSW,252,0.0,0.0,78,0.00,,,0.00,Wunderground v.1.15,2013-08-12 14:25:00,
2013-08-12 07:30:00,51.1,44.5,29.95,WSW,252,0.0,0.0,78,0.00,,,0.00,Wunderground v.1.15,2013-08-12 14:30:00,
2013-08-12 07:40:00,52.5,45.5,29.95,WSW,252,0.0,0.0,77,0.00,,,0.00,Wunderground v.1.15,2013-08-12 14:40:00,
2013-08-12 07:45:00,53.2,45.8,29.95,WSW,252,0.0,0.0,76,0.00,,,0.00,Wunderground v.1.15,2013-08-12 14:45:00,
2013-08-12 07:50:00,54.2,46.4,29.95,WSW,252,0.0,0.0,75,0.00,,,0.00,Wunderground v.1.15,2013-08-12 14:50:00,
2013-08-12 08:00:00,56.2,47.7,29.95,WSW,252,0.0,0.0,73,0.00,,,0.00,Wunderground v.1.15,2013-08-12 15:00:00,
2013-08-12 08:05:00,57.2,47.9,29.95,WSW,252,0.0,0.0,71,0.00,,,0.00,Wunderground v.1.15,2013-08-12 15:05:00,
2013-08-12 08:10:00,58.3,47.8,29.95,WSW,252,0.0,0.0,68,0.00,,,0.00,Wunderground v.1.15,2013-08-12 15:10:00,
2013-08-12 08:15:00,59.2,48.2,29.95,WSW,252,0.0,0.0,67,0.00,,,0.00,Wunderground v.1.15,2013-08-12 15:15:00,
2013-08-12 08:20:00,60.1,48.3,29.95,WSW,252,0.0,0.0,65,0.00,,,0.00,Wunderground v.1.15,2013-08-12 15:20:00,
2013-08-12 08:30:00,61.2,48.5,29.96,WSW,252,0.0,1.0,63,0.00,,,0.00,Wunderground v.1.15,2013-08-12 15:30:00,
2013-08-12 08:40:00,62.3,48.7,29.96,WSW,252,1.0,1.0,61,0.00,,,0.00,Wunderground v.1.15,2013-08-12 15:40:00,
2013-08-12 08:45:00,62.9,48.8,29.96,WSW,252,1.0,1.0,60,0.00,,,0.00,Wunderground v.1.15,2013-08-12 15:45:00,
2013-08-12 08:50:00,63.5,48.9,29.96,West,262,1.0,1.0,59,0.00,,,0.00,Wunderground v.1.15,2013-08-12 15:50:00,
2013-08-12 09:00:00,65.0,48.9,29.95,West,274,1.0,1.0,56,0.00,,,0.00,Wunderground v.1.15,2013-08-12 16:00:00,
2013-08-12 09:05:00,65.8,48.7,29.95,West,277,1.0,1.0,54,0.00,,,0.00,Wunderground v.1.15,2013-08-12 16:05:00,
2013-08-12 09:15:00,67.4,48.6,29.95,NNW,329,0.0,1.0,51,0.00,,,0.00,Wunderground v.1.15,2013-08-12 16:15:00,
2013-08-12 09:20:00,68.4,46.8,29.95,NNW,329,1.0,1.0,46,0.00,,,0.00,Wunderground v.1.15,2013-08-12 16:20:00,
2013-08-12 09:30:00,70.1,47.2,29.95,NNW,329,0.0,0.0,44,0.00,,,0.00,Wunderground v.1.15,2013-08-12 16:30:00,
2013-08-12 09:35:00,70.8,47.8,29.95,NNW,329,0.0,0.0,44,0.00,,,0.00,Wunderground v.1.15,2013-08-12 16:35:00,
2013-08-12 09:40:00,71.8,47.5,29.95,ENE,75,0.0,1.0,42,0.00,,,0.00,Wunderground v.1.15,2013-08-12 16:40:00,
2013-08-12 09:50:00,73.0,45.9,29.94,NE,42,0.0,0.0,38,0.00,,,0.00,Wunderground v.1.15,2013-08-12 16:50:00,
2013-08-12 09:55:00,73.5,44.9,29.94,NE,41,0.0,1.0,36,0.00,,,0.00,Wunderground v.1.15,2013-08-12 16:55:00,
2013-08-12 10:05:00,74.6,45.1,29.94,NW,319,1.0,1.0,35,0.00,,,0.00,Wunderground v.1.15,2013-08-12 17:05:00,
2013-08-12 10:10:00,75.6,45.2,29.94,NW,319,0.0,0.0,34,0.00,,,0.00,Wunderground v.1.15,2013-08-12 17:10:00,
2013-08-12 10:15:00,76.1,44.9,29.94,NW,319,0.0,0.0,33,0.00,,,0.00,Wunderground v.1.15,2013-08-12 17:15:00,
2013-08-12 10:20:00,78.1,45.0,29.94,East,95,0.0,0.0,31,0.00,,,0.00,Wunderground v.1.15,2013-08-12 17:20:00,
2013-08-12 10:25:00,77.7,45.5,29.94,NE,52,0.0,3.0,32,0.00,,,0.00,Wunderground v.1.15,2013-08-12 17:25:00,
2013-08-12 10:35:00,78.5,43.6,29.94,North,355,1.0,3.0,29,0.00,,,0.00,Wunderground v.1.15,2013-08-12 17:35:00,
2013-08-12 10:40:00,79.4,46.1,29.94,North,355,1.0,1.0,31,0.00,,,0.00,Wunderground v.1.15,2013-08-12 17:40:00,
2013-08-12 10:50:00,80.1,45.9,29.93,East,92,0.0,0.0,30,0.00,,,0.00,Wunderground v.1.15,2013-08-12 17:50:00,
2013-08-12 10:55:00,81.6,45.3,29.93,East,92,0.0,0.0,28,0.00,,,0.00,Wunderground v.1.15,2013-08-12 17:55:00,
2013-08-12 11:00:00,82.2,44.9,29.93,East,92,0.0,0.0,27,0.00,,,0.00,Wunderground v.1.15,2013-08-12 18:00:00,
2013-08-12 11:05:00,82.8,46.4,29.93,ENE,78,0.0,0.0,28,0.00,,,0.00,Wunderground v.1.15,2013-08-12 18:05:00,
2013-08-12 11:10:00,81.8,45.5,29.93,ENE,78,2.0,2.0,28,0.00,,,0.00,Wunderground v.1.15,2013-08-12 18:10:00,
2013-08-12 11:20:00,83.2,46.7,29.93,West,275,2.0,2.0,28,0.00,,,0.00,Wunderground v.1.15,2013-08-12 18:20:00,
2013-08-12 11:30:00,84.3,46.7,29.93,SSE,159,2.0,2.0,27,0.00,,,0.00,Wunderground v.1.15,2013-08-12 18:30:00,
2013-08-12 11:35:00,84.1,44.5,29.93,East,90,2.0,3.0,25,0.00,,,0.00,Wunderground v.1.15,2013-08-12 18:35:00,
2013-08-12 11:45:00,85.5,44.6,29.92,ENE,71,1.0,3.0,24,0.00,,,0.00,Wunderground v.1.15,2013-08-12 18:45:00,
2013-08-12 11:50:00,84.5,43.7,29.92,East,91,3.0,6.0,24,0.00,,,0.00,Wunderground v.1.15,2013-08-12 18:50:00,
2013-08-12 12:00:00,84.5,41.5,29.92,ESE,102,5.0,5.0,22,0.00,,,0.00,Wunderground v.1.15,2013-08-12 19:00:00,
2013-08-12 12:05:00,85.7,43.6,29.92,ESE,112,3.0,5.0,23,0.00,,,0.00,Wunderground v.1.15,2013-08-12 19:05:00,
2013-08-12 12:10:00,86.1,44.0,29.92,SSE,152,2.0,2.0,23,0.00,,,0.00,Wunderground v.1.15,2013-08-12 19:10:00,
2013-08-12 12:20:00,87.0,42.3,29.92,ESE,116,1.0,1.0,21,0.00,,,0.00,Wunderground v.1.15,2013-08-12 19:20:00,
2013-08-12 12:25:00,87.4,45.1,29.92,ESE,115,2.0,2.0,23,0.00,,,0.00,Wunderground v.1.15,2013-08-12 19:25:00,
2013-08-12 12:35:00,86.7,43.3,29.92,East,79,4.0,6.0,22,0.00,,,0.00,Wunderground v.1.15,2013-08-12 19:35:00,
2013-08-12 12:40:00,86.7,43.3,29.92,ENE,62,6.0,6.0,22,0.00,,,0.00,Wunderground v.1.15,2013-08-12 19:40:00,
2013-08-12 12:45:00,86.3,43.0,29.91,ENE,74,6.0,7.0,22,0.00,,,0.00,Wunderground v.1.15,2013-08-12 19:45:00,
2013-08-12 12:50:00,87.2,42.5,29.91,ENE,78,5.0,7.0,21,0.00,,,0.00,Wunderground v.1.15,2013-08-12 19:50:00,
2013-08-12 13:00:00,87.6,44.1,29.91,East,99,6.0,6.0,22,0.00,,,0.00,Wunderground v.1.15,2013-08-12 20:00:00,
2013-08-12 13:05:00,88.4,44.7,29.91,East,88,5.0,6.0,22,0.00,,,0.00,Wunderground v.1.15,2013-08-12 20:05:00,
2013-08-12 13:10:00,88.0,43.2,29.91,ENE,69,4.0,4.0,21,0.00,,,0.00,Wunderground v.1.15,2013-08-12 20:10:00,
2013-08-12 13:20:00,88.8,43.8,29.91,East,80,3.0,3.0,21,0.00,,,0.00,Wunderground v.1.15,2013-08-12 20:20:00,
2013-08-12 13:25:00,88.8,45.0,29.91,WSW,246,3.0,3.0,22,0.00,,,0.00,Wunderground v.1.15,2013-08-12 20:25:00,
2013-08-12 13:30:00,89.5,45.6,29.90,NE,38,2.0,2.0,22,0.00,,,0.00,Wunderground v.1.15,2013-08-12 20:30:00,
2013-08-12 13:35:00,89.0,42.7,29.90,SE,138,3.0,3.0,20,0.00,,,0.00,Wunderground v.1.15,2013-08-12 20:35:00,
2013-08-12 13:40:00,89.0,41.4,29.90,ESE,109,4.0,9.0,19,0.00,,,0.00,Wunderground v.1.15,2013-08-12 20:40:00,
2013-08-12 13:50:00,88.6,39.7,29.90,ESE,103,4.0,7.0,18,0.00,,,0.00,Wunderground v.1.15,2013-08-12 20:50:00,
2013-08-12 13:55:00,89.0,38.5,29.90,North,355,3.0,7.0,17,0.00,,,0.00,Wunderground v.1.15,2013-08-12 20:55:00,
2013-08-12 14:00:00,89.3,37.2,29.90,ENE,71,3.0,4.0,16,0.00,,,0.00,Wunderground v.1.15,2013-08-12 21:00:00,
2013-08-12 14:10:00,89.7,40.6,29.90,NNE,17,3.0,3.0,18,0.00,,,0.00,Wunderground v.1.15,2013-08-12 21:10:00,
2013-08-12 14:15:00,89.7,42.0,29.90,WNW,284,3.0,3.0,19,0.00,,,0.00,Wunderground v.1.15,2013-08-12 21:15:00,
2013-08-12 14:20:00,89.5,41.8,29.90,ESE,121,3.0,3.0,19,0.00,,,0.00,Wunderground v.1.15,2013-08-12 21:20:00,
2013-08-12 14:55:00,89.9,42.1,29.90,West,266,4.0,9.0,19,0.00,,,0.00,Wunderground v.1.15,2013-08-12 21:55:00,
2013-08-12 15:00:00,89.7,42.0,29.90,SE,140,3.0,3.0,19,0.00,,,0.00,Wunderground v.1.15,2013-08-12 22:00:00,
2013-08-12 15:10:00,89.9,40.7,29.90,West,272,4.0,4.0,18,0.00,,,0.00,Wunderground v.1.15,2013-08-12 22:10:00,
2013-08-12 15:15:00,91.4,43.3,29.89,West,267,3.0,4.0,19,0.00,,,0.00,Wunderground v.1.15,2013-08-12 22:15:00,
2013-08-12 15:20:00,91.4,40.5,29.89,NNW,343,2.0,2.0,17,0.00,,,0.00,Wunderground v.1.15,2013-08-12 22:20:00,
2013-08-12 15:30:00,90.7,38.3,29.89,North,11,2.0,3.0,16,0.00,,,0.00,Wunderground v.1.15,2013-08-12 22:30:00,
2013-08-12 15:35:00,90.1,36.2,29.89,NNE,22,3.0,3.0,15,0.00,,,0.00,Wunderground v.1.15,2013-08-12 22:35:00,
2013-08-12 15:40:00,89.9,39.2,29.89,NW,304,4.0,4.0,17,0.00,,,0.00,Wunderground v.1.15,2013-08-12 22:40:00,
2013-08-12 15:45:00,90.1,39.4,29.89,ESE,113,4.0,5.0,17,0.00,,,0.00,Wunderground v.1.15,2013-08-12 22:45:00,
2013-08-12 15:50:00,90.5,39.7,29.89,East,81,3.0,3.0,17,0.00,,,0.00,Wunderground v.1.15,2013-08-12 22:50:00,
2013-08-12 16:00:00,91.0,38.6,29.89,WNW,298,3.0,4.0,16,0.00,,,0.00,Wunderground v.1.15,2013-08-12 23:00:00,
2013-08-12 16:05:00,91.0,40.1,29.89,ESE,103,3.0,5.0,17,0.00,,,0.00,Wunderground v.1.15,2013-08-12 23:05:00,
2013-08-12 16:15:00,90.3,36.4,29.88,SE,132,5.0,5.0,15,0.00,,,0.00,Wunderground v.1.15,2013-08-12 23:15:00,
2013-08-12 16:25:00,89.9,37.7,29.88,NNW,345,5.0,6.0,16,0.00,,,0.00,Wunderground v.1.15,2013-08-12 23:25:00,
2013-08-12 16:30:00,90.3,39.6,29.87,ENE,73,4.0,4.0,17,0.00,,,0.00,Wunderground v.1.15,2013-08-12 23:30:00,
2013-08-12 16:40:00,90.3,42.4,29.87,East,101,4.0,4.0,19,0.00,,,0.00,Wunderground v.1.15,2013-08-12 23:40:00,
2013-08-12 16:50:00,90.5,41.2,29.87,NNW,329,2.0,3.0,18,0.00,,,0.00,Wunderground v.1.15,2013-08-12 23:50:00,
2013-08-12 16:55:00,90.5,43.9,29.87,WNW,284,2.0,4.0,20,0.00,,,0.00,Wunderground v.1.15,2013-08-12 23:55:00,
2013-08-12 17:00:00,90.3,43.8,29.87,ENE,69,3.0,4.0,20,0.00,,,0.00,Wunderground v.1.15,2013-08-13 00:00:00,
2013-08-12 17:10:00,89.7,43.3,29.87,ESE,102,4.0,7.0,20,0.00,,,0.00,Wunderground v.1.15,2013-08-13 00:10:00,
2013-08-12 17:20:00,90.3,43.8,29.87,ESE,103,3.0,4.0,20,0.00,,,0.00,Wunderground v.1.15,2013-08-13 00:20:00,
2013-08-12 17:25:00,90.5,41.2,29.87,NW,312,2.0,4.0,18,0.00,,,0.00,Wunderground v.1.15,2013-08-13 00:25:00,
2013-08-12 17:35:00,90.1,42.3,29.87,WSW,257,4.0,4.0,19,0.00,,,0.00,Wunderground v.1.15,2013-08-13 00:35:00,
2013-08-12 17:40:00,90.3,41.0,29.87,NW,316,4.0,4.0,18,0.00,,,0.00,Wunderground v.1.15,2013-08-13 00:40:00,
2013-08-12 17:45:00,90.1,40.9,29.87,WNW,302,3.0,6.0,18,0.00,,,0.00,Wunderground v.1.15,2013-08-13 00:45:00,
2013-08-12 17:55:00,89.3,41.6,29.87,WNW,288,5.0,7.0,19,0.00,,,0.00,Wunderground v.1.15,2013-08-13 00:55:00,
2013-08-12 18:05:00,89.0,40.0,29.87,West,277,5.0,11.0,18,0.00,,,0.00,Wunderground v.1.15,2013-08-13 01:05:00,
2013-08-12 18:10:00,88.8,39.8,29.87,West,278,5.0,8.0,18,0.00,,,0.00,Wunderground v.1.15,2013-08-13 01:10:00,
2013-08-12 18:20:00,88.4,38.0,29.87,WNW,282,4.0,5.0,17,0.00,,,0.00,Wunderground v.1.15,2013-08-13 01:20:00,
2013-08-12 18:25:00,88.2,37.9,29.87,WNW,297,4.0,6.0,17,0.00,,,0.00,Wunderground v.1.15,2013-08-13 01:25:00,
2013-08-12 18:30:00,88.0,37.7,29.87,West,276,4.0,8.0,17,0.00,,,0.00,Wunderground v.1.15,2013-08-13 01:30:00,
2013-08-12 18:40:00,87.6,35.9,29.87,NW,318,4.0,6.0,16,0.00,,,0.00,Wunderground v.1.15,2013-08-13 01:40:00,
2013-08-12 18:45:00,87.2,37.1,29.88,West,265,4.0,6.0,17,0.00,,,0.00,Wunderground v.1.15,2013-08-13 01:45:00,
2013-08-12 18:55:00,86.7,35.1,29.88,West,271,3.0,6.0,16,0.00,,,0.00,Wunderground v.1.15,2013-08-13 01:55:00,
2013-08-12 19:00:00,86.3,34.8,29.88,WNW,303,4.0,4.0,16,0.00,,,0.00,Wunderground v.1.15,2013-08-13 02:00:00,
2013-08-12 19:05:00,86.1,34.7,29.88,NNW,344,5.0,5.0,16,0.00,,,0.00,Wunderground v.1.15,2013-08-13 02:05:00,
2013-08-12 19:10:00,85.9,36.0,29.88,NNW,328,3.0,3.0,17,0.00,,,0.00,Wunderground v.1.15,2013-08-13 02:10:00,
2013-08-12 19:20:00,85.1,36.8,29.88,NE,48,1.0,1.0,18,0.00,,,0.00,Wunderground v.1.15,2013-08-13 02:20:00,
2013-08-12 19:25:00,84.3,36.2,29.88,NNE,16,1.0,4.0,18,0.00,,,0.00,Wunderground v.1.15,2013-08-13 02:25:00,
2013-08-12 19:30:00,84.0,37.3,29.88,NNE,16,1.0,1.0,19,0.00,,,0.00,Wunderground v.1.15,2013-08-13 02:30:00,
2013-08-12 19:40:00,83.4,38.1,29.88,SW,232,1.0,1.0,20,0.00,,,0.00,Wunderground v.1.15,2013-08-13 02:40:00,
2013-08-12 19:45:00,82.6,38.7,29.89,SW,230,1.0,1.0,21,0.00,,,0.00,Wunderground v.1.15,2013-08-13 02:45:00,
2013-08-12 19:50:00,81.8,39.2,29.89,SW,230,0.0,0.0,22,0.00,,,0.00,Wunderground v.1.15,2013-08-13 02:50:00,
2013-08-12 20:00:00,80.5,39.3,29.89,South,174,0.0,0.0,23,0.00,,,0.00,Wunderground v.1.15,2013-08-13 03:00:00,
2013-08-12 20:05:00,80.1,38.9,29.89,SE,135,0.0,0.0,23,0.00,,,0.00,Wunderground v.1.15,2013-08-13 03:05:00,
2013-08-12 20:10:00,79.2,40.3,29.89,SE,135,0.0,0.0,25,0.00,,,0.00,Wunderground v.1.15,2013-08-13 03:10:00,
2013-08-12 20:20:00,77.9,40.2,29.89,SE,136,0.0,0.0,26,0.00,,,0.00,Wunderground v.1.15,2013-08-13 03:20:00,
2013-08-12 20:25:00,77.4,39.8,29.89,SE,135,0.0,0.0,26,0.00,,,0.00,Wunderground v.1.15,2013-08-13 03:25:00,
2013-08-12 20:35:00,75.4,40.0,29.90,SSW,198,0.0,2.0,28,0.00,,,0.00,Wunderground v.1.15,2013-08-13 03:35:00,
2013-08-12 20:45:00,73.3,40.8,29.90,WSW,240,0.0,0.0,31,0.00,,,0.00,Wunderground v.1.15,2013-08-13 03:45:00,
2013-08-12 20:55:00,71.8,41.1,29.90,WSW,240,0.0,0.0,33,0.00,,,0.00,Wunderground v.1.15,2013-08-13 03:55:00,
2013-08-12 21:00:00,71.3,41.5,29.90,WSW,240,0.0,0.0,34,0.00,,,0.00,Wunderground v.1.15,2013-08-13 04:00:00,
2013-08-12 21:05:00,70.6,41.6,29.90,WSW,240,0.0,0.0,35,0.00,,,0.00,Wunderground v.1.15,2013-08-13 04:05:00,
2013-08-12 21:10:00,70.1,41.2,29.90,WSW,240,0.0,0.0,35,0.00,,,0.00,Wunderground v.1.15,2013-08-13 04:10:00,
2013-08-12 21:15:00,69.6,41.5,29.91,WSW,240,0.0,0.0,36,0.00,,,0.00,Wunderground v.1.15,2013-08-13 04:15:00,
2013-08-12 21:20:00,69.1,41.0,29.91,WSW,240,0.0,0.0,36,0.00,,,0.00,Wunderground v.1.15,2013-08-13 04:20:00,
2013-08-12 21:30:00,67.9,41.3,29.92,WSW,240,0.0,0.0,38,0.00,,,0.00,Wunderground v.1.15,2013-08-13 04:30:00,
2013-08-12 21:40:00,67.1,41.3,29.92,WSW,240,0.0,0.0,39,0.00,,,0.00,Wunderground v.1.15,2013-08-13 04:40:00,
2013-08-12 21:45:00,66.8,41.0,29.92,WSW,240,0.0,0.0,39,0.00,,,0.00,Wunderground v.1.15,2013-08-13 04:45:00,
2013-08-12 21:50:00,66.4,40.7,29.92,WSW,240,0.0,0.0,39,0.00,,,0.00,Wunderground v.1.15,2013-08-13 04:50:00,
2013-08-12 22:00:00,65.6,41.3,29.92,WSW,240,0.0,0.0,41,0.00,,,0.00,Wunderground v.1.15,2013-08-13 05:00:00,
2013-08-12 22:05:00,65.5,41.8,29.92,WSW,240,0.0,0.0,42,0.00,,,0.00,Wunderground v.1.15,2013-08-13 05:05:00,
2013-08-12 22:10:00,65.2,41.5,29.92,WSW,240,0.0,0.0,42,0.00,,,0.00,Wunderground v.1.15,2013-08-13 05:10:00,
2013-08-12 22:20:00,64.7,41.7,29.92,WSW,240,0.0,0.0,43,0.00,,,0.00,Wunderground v.1.15,2013-08-13 05:20:00,
2013-08-12 22:25:00,64.5,42.1,29.92,WSW,240,0.0,0.0,44,0.00,,,0.00,Wunderground v.1.15,2013-08-13 05:25:00,
2013-08-12 22:30:00,64.2,41.8,29.92,WSW,240,0.0,0.0,44,0.00,,,0.00,Wunderground v.1.15,2013-08-13 05:30:00,
2013-08-12 22:35:00,64.0,41.6,29.92,WSW,240,0.0,0.0,44,0.00,,,0.00,Wunderground v.1.15,2013-08-13 05:35:00,
2013-08-12 22:40:00,63.7,41.4,29.92,WSW,240,0.0,0.0,44,0.00,,,0.00,Wunderground v.1.15,2013-08-13 05:40:00,
2013-08-12 22:45:00,63.5,41.8,29.92,WSW,240,0.0,0.0,45,0.00,,,0.00,Wunderground v.1.15,2013-08-13 05:45:00,
2013-08-12 22:50:00,63.2,42.1,29.92,WSW,240,0.0,0.0,46,0.00,,,0.00,Wunderground v.1.15,2013-08-13 05:50:00,
2013-08-12 22:55:00,62.9,41.8,29.92,WSW,240,0.0,0.0,46,0.00,,,0.00,Wunderground v.1.15,2013-08-13 05:55:00,
2013-08-12 23:00:00,62.6,41.5,29.93,WSW,240,1.0,1.0,46,0.00,,,0.00,Wunderground v.1.15,2013-08-13 06:00:00,
2013-08-12 23:10:00,62.0,42.1,29.93,WSW,240,0.0,0.0,48,0.00,,,0.00,Wunderground v.1.15,2013-08-13 06:10:00,
2013-08-12 23:15:00,61.6,41.7,29.93,WSW,240,0.0,0.0,48,0.00,,,0.00,Wunderground v.1.15,2013-08-13 06:15:00,
2013-08-12 23:20:00,61.5,42.2,29.93,WSW,240,0.0,0.0,49,0.00,,,0.00,Wunderground v.1.15,2013-08-13 06:20:00,
2013-08-12 23:25:00,61.3,41.4,29.93,WSW,240,0.0,0.0,48,0.00,,,0.00,Wunderground v.1.15,2013-08-13 06:25:00,
2013-08-12 23:30:00,61.0,41.7,29.93,WSW,240,0.0,0.0,49,0.00,,,0.00,Wunderground v.1.15,2013-08-13 06:30:00,
2013-08-12 23:40:00,60.9,41.6,29.93,WSW,240,0.0,0.0,49,0.00,,,0.00,Wunderground v.1.15,2013-08-13 06:40:00,
2013-08-12 23:45:00,60.5,41.8,29.93,WSW,240,0.0,0.0,50,0.00,,,0.00,Wunderground v.1.15,2013-08-13 06:45:00,
2013-08-12 23:50:00,60.2,41.5,29.93,WSW,240,0.0,0.0,50,0.00,,,0.00,Wunderground v.1.15,2013-08-13 06:50:00,